Date String (YYYY-MM-DD hh:mm:ss) UTC,Instrument flags,Ambient pressure (hPa),Sample flow (lpm),Bypass flow (lpm),Sample temperature (°C),Ambient temperature (°C),ASC tube jacket temperature (°C),LED temperature (°C),Box temperature (°C),Sample RH (%),Span deviation,Mass concentration (μg/m³),Mass concentration (μg/m³),Mass concentration (μg/m³)
DateTimeUTC,F1_M11,P_M11,Q1_M11,Q2_M11,T1_M11,T2_M11,T3_M11,T4_M11,T5_M11,U1_M11,ZSPAN_M11,X0_M11,X2_M11,X1_M11
2022-01-11 22:00:00,,0830.8,4.99,0.00,24.8,24.2,00.0,33.6,26.6,08.8,0000.0,0011.24,0005.25,0004.66
2022-01-11 22:01:00,,0830.8,5.01,0.00,24.8,24.2,00.0,33.6,26.7,08.5,0000.0,0011.41,0005.24,0004.65
2022-01-11 22:02:00,,0830.8,4.99,0.00,24.8,24.2,00.0,33.6,26.7,08.5,0000.0,0011.29,0005.24,0004.65
2022-01-11 22:03:00,,0830.8,5.02,0.00,24.8,24.2,00.0,33.6,26.7,08.4,0000.0,0011.23,0005.28,0004.66
2022-01-11 22:04:00,,0830.7,4.99,0.00,24.8,24.2,00.0,33.6,26.7,08.6,0000.0,0011.41,0005.32,0004.67
2022-01-11 22:05:00,,0830.7,5.01,0.00,24.8,24.2,00.0,33.7,26.7,08.8,0000.0,0012.04,0005.39,0004.68
2022-01-11 22:06:00,,0830.8,4.99,0.00,24.8,24.2,00.0,33.7,26.7,08.8,0000.0,0012.09,0005.43,0004.68
2022-01-11 22:07:00,,0830.8,5.01,0.00,24.9,24.2,00.0,33.7,26.7,08.7,0000.0,0012.04,0005.44,0004.68
2022-01-11 22:08:00,,0830.7,4.99,0.00,24.9,24.3,00.0,33.7,26.8,08.3,0000.0,0012.59,0005.43,0004.68
2022-01-11 22:09:00,,0830.8,5.01,0.00,24.9,24.3,00.0,33.7,26.8,08.2,0000.0,0013.10,0005.47,0004.70
2022-01-11 22:10:00,,0830.8,4.99,0.00,24.9,24.3,00.0,33.7,26.8,08.4,0000.0,0013.26,0005.50,0004.72
2022-01-11 22:11:00,,0830.8,5.01,0.00,24.9,24.3,00.0,33.8,26.8,08.4,0000.0,0012.68,0005.55,0004.73
2022-01-11 22:12:00,,0830.8,5.00,0.00,24.9,24.3,00.0,33.8,26.8,08.2,0000.0,0012.60,0005.58,0004.73
2022-01-11 22:13:00,,0830.8,4.98,0.00,25.0,24.3,00.0,33.8,26.9,08.3,0000.0,0012.90,0005.60,0004.73
2022-01-11 22:14:00,,0830.8,5.02,0.00,25.0,24.3,00.0,33.8,26.9,08.5,0000.0,0013.03,0005.59,0004.72
2022-01-11 22:15:00,,0830.8,5.02,0.00,25.0,24.4,00.0,33.8,26.9,08.7,0000.0,0012.85,0005.55,0004.70
2022-01-11 22:16:00,,0830.8,4.98,0.00,25.0,24.4,00.0,33.8,26.9,09.0,0000.0,0012.68,0005.49,0004.67
2022-01-11 22:17:00,,0830.7,5.00,0.00,25.0,24.4,00.0,33.9,26.9,08.5,0000.0,0012.40,0005.45,0004.66
2022-01-11 22:18:00,,0830.7,4.99,0.00,25.0,24.4,00.0,33.9,26.9,08.3,0000.0,0012.80,0005.44,0004.66
2022-01-11 22:19:00,,0830.6,5.02,0.00,25.0,24.4,00.0,33.9,27.0,08.3,0000.0,0012.43,0005.44,0004.65
2022-01-11 22:20:00,,0830.6,4.99,0.00,25.1,24.5,00.0,33.9,27.0,08.1,0000.0,0012.47,0005.43,0004.63
2022-01-11 22:21:00,,0830.6,5.00,0.00,25.1,24.5,00.0,33.9,27.0,07.9,0000.0,0012.16,0005.42,0004.63
2022-01-11 22:22:00,,0830.7,5.01,0.00,25.1,24.5,00.0,33.9,27.0,08.0,0000.0,0012.44,0005.50,0004.66
2022-01-11 22:23:00,,0830.7,4.99,0.00,25.1,24.5,00.0,34.0,27.0,08.2,0000.0,0012.94,0005.55,0004.69
2022-01-11 22:24:00,,0830.8,5.00,0.00,25.1,24.5,00.0,34.0,27.1,08.3,0000.0,0013.10,0005.64,0004.71
2022-01-11 22:25:00,,0830.8,5.00,0.00,25.1,24.5,00.0,34.0,27.0,08.3,0000.0,0013.07,0005.67,0004.72
2022-01-11 22:26:00,,0830.8,4.99,0.00,25.1,24.5,00.0,34.0,27.0,08.3,0000.0,0013.29,0005.75,0004.75
2022-01-11 22:27:00,,0830.7,5.02,0.00,25.2,24.5,00.0,34.0,27.1,08.3,0000.0,0013.40,0005.81,0004.77
2022-01-11 22:28:00,,0830.6,4.99,0.00,25.2,24.6,00.0,34.0,27.1,08.2,0000.0,0013.69,0005.85,0004.79
2022-01-11 22:29:00,,0830.6,5.02,0.00,25.2,24.6,00.0,34.1,27.1,08.1,0000.0,0013.76,0005.90,0004.81
2022-01-11 22:30:00,,0830.6,4.99,0.00,25.2,24.6,00.0,34.1,27.1,08.1,0000.0,0014.17,0005.92,0004.84
2022-01-11 22:31:00,,0830.6,4.99,0.00,25.2,24.6,00.0,34.1,27.1,07.9,0000.0,0013.87,0005.96,0004.88
2022-01-11 22:32:00,,0830.6,5.02,0.00,25.2,24.6,00.0,34.1,27.1,08.3,0000.0,0014.07,0006.02,0004.91
2022-01-11 22:33:00,,0830.6,4.99,0.00,25.2,24.6,00.0,34.1,27.1,08.5,0000.0,0013.79,0005.96,0004.90
2022-01-11 22:34:00,,0830.6,4.99,0.00,25.3,24.6,00.0,34.1,27.1,08.0,0000.0,0013.49,0005.92,0004.88
2022-01-11 22:35:00,,0830.6,5.00,0.00,25.3,24.6,00.0,34.1,27.2,08.0,0000.0,0013.10,0005.86,0004.88
2022-01-11 22:36:00,,0830.6,5.01,0.00,25.3,24.6,00.0,34.1,27.2,08.3,0000.0,0013.05,0005.81,0004.88
2022-01-11 22:37:00,,0830.5,5.00,0.00,25.3,24.6,00.0,34.2,27.1,08.7,0000.0,0013.71,0005.81,0004.87
2022-01-11 22:38:00,,0830.5,5.00,0.00,25.3,24.6,00.0,34.2,27.2,08.2,0000.0,0013.47,0005.79,0004.87
2022-01-11 22:39:00,,0830.6,5.00,0.00,25.3,24.6,00.0,34.2,27.2,08.4,0000.0,0012.94,0005.77,0004.87
2022-01-11 22:40:00,,0830.6,5.00,0.00,25.3,24.6,00.0,34.2,27.1,08.2,0000.0,0012.71,0005.76,0004.86
2022-01-11 22:41:00,,0830.6,4.99,0.00,25.3,24.6,00.0,34.2,27.2,07.9,0000.0,0012.52,0005.79,0004.86
2022-01-11 22:42:00,,0830.6,5.01,0.00,25.3,24.6,00.0,34.2,27.2,07.9,0000.0,0012.48,0005.76,0004.85
2022-01-11 22:43:00,,0830.6,5.00,0.00,25.3,24.6,00.0,34.2,27.2,07.6,0000.0,0012.23,0005.72,0004.81
2022-01-11 22:44:00,,0830.6,4.99,0.00,25.3,24.6,00.0,34.2,27.2,07.7,0000.0,0012.40,0005.74,0004.79
2022-01-11 22:45:00,,0830.6,5.00,0.00,25.3,24.6,00.0,34.2,27.2,07.9,0000.0,0012.33,0005.74,0004.78
2022-01-11 22:46:00,,0830.6,4.99,0.00,25.3,24.6,00.0,34.2,27.2,07.7,0000.0,0012.40,0005.70,0004.75
2022-01-11 22:47:00,,0830.6,4.99,0.00,25.3,24.6,00.0,34.2,27.2,07.6,0000.0,0012.58,0005.68,0004.74
2022-01-11 22:48:00,,0830.6,5.02,0.00,25.3,24.6,00.0,34.2,27.2,07.4,0000.0,0011.88,0005.65,0004.73
2022-01-11 22:49:00,,0830.6,5.00,0.00,25.3,24.6,00.0,34.2,27.2,07.4,0000.0,0012.20,0005.63,0004.71
2022-01-11 22:50:00,,0830.6,5.01,0.00,25.3,24.6,00.0,34.2,27.2,07.6,0000.0,0012.26,0005.60,0004.71
2022-01-11 22:51:00,,0830.6,5.00,0.00,25.3,24.6,00.0,34.3,27.2,07.8,0000.0,0012.43,0005.58,0004.70
2022-01-11 22:52:00,,0830.6,5.00,0.00,25.3,24.6,00.0,34.3,27.2,07.8,0000.0,0012.12,0005.56,0004.67
2022-01-11 22:53:00,,0830.6,5.00,0.00,25.3,24.6,00.0,34.3,27.2,07.6,0000.0,0012.03,0005.53,0004.64
2022-01-11 22:54:00,,0830.6,4.99,0.00,25.3,24.6,00.0,34.3,27.2,07.5,0000.0,0012.05,0005.54,0004.62
2022-01-11 22:55:00,,0830.6,5.01,0.00,25.3,24.7,00.0,34.3,27.2,07.4,0000.0,0011.83,0005.46,0004.61
2022-01-11 22:56:00,,0830.6,4.99,0.00,25.4,24.7,00.0,34.3,27.2,07.5,0000.0,0011.83,0005.46,0004.60
2022-01-11 22:57:00,,0830.6,5.02,0.00,25.4,24.7,00.0,34.3,27.2,07.7,0000.0,0012.63,0005.51,0004.59
2022-01-11 22:58:00,,0830.6,4.99,0.00,25.4,24.7,00.0,34.3,27.2,07.5,0000.0,0013.47,0005.51,0004.57
2022-01-11 22:59:00,,0830.6,5.00,0.00,25.4,24.7,00.0,34.3,27.2,07.5,0000.0,0013.77,0005.52,0004.59
